Starlink 34074

operational
NORAD ID: 64099 Int'l Des: 2025-110 Owner: SPXS Country: US Constellation: starlink
LEOCIRCULAR

Über Starlink 34074

Beschreibung wird geladen...

Live-Position

3D-Globus wird geladen...

Nächste Überflüge

Höhenverlauf

Altitude vs Time

uPlot chart will show altitude changes over time

Zweizeiliger Elementsatz

1 64099U 25110D 25308.13556897 .00063640 00000-0 15849-2 0 9997
2 64099 53.1597 250.3769 0002037 96.0852 264.0385 15.39672846 26652
Epoch: 4. Nov. 2025 • Age: 17 hours

Aktueller Status

Höhe 465.2 km
Geschwindigkeit 7.63 km/s
Subsatellitenpunkt -49.37°S, 158.73°W
Startdatum 23. Mai 2025
Alter 0.4 years
Typ internet

Technische Details

Klassifizierung Payload
Masse 575.00 kg
Trockenmasse 530.00 kg
Gesamtmasse 575.00 kg
Länge 0.30 m
Durchmesser 4.10 m
Spannweite 29.00 m
Form Box + pan
Hersteller SPXS
Bus-Typ Starlink V2MO
Phasenstatus In Orbit
Besitzer/Staat SPXS/US

Große Konstellationen

Loading constellations...